Wetbulb
62.26 62.14 60.83 59.16 57.90 57.01 56.63 56.31 56.22 55.77 55.80 56.23 56.76 56.88 58.44 57.83 55.75 56.52 52.44 55.45 58.04 60.38 57.91 57.52 55.99 57.20 57.42 55.59 56.71 56.91 51.41 49.53 49.84 48.93 51.82 53.61 52.98 56.06 57.09 55.50 55.95 56.70 56.44 58.04 59.50
61.15 60.19 59.10 58.26 56.99 55.69 55.38 55.29 55.31 55.22 55.83 56.18 56.60 56.86 58.21 56.90 55.10 52.89 57.45 58.96 59.69 60.06 56.61 55.05 54.21 56.61 55.38 54.77 55.40 53.18 50.79 50.99 53.12 52.69 51.34 52.67 52.85 53.39 52.99 53.28 53.55 55.10 57.54 57.79 58.22
59.72 58.97 57.92 56.95 55.75 55.08 54.79 54.66 54.66 55.19 55.35 55.87 56.42 57.25 57.67 55.97 52.10 52.25 59.01 58.54 60.57 59.50 57.99 57.29 57.99 57.38 54.86 54.78 54.22 53.17 50.15 52.30 51.84 52.29 52.94 51.82 51.65 53.27 51.50 49.82 52.20 51.89 53.97 55.39 55.87
58.57 57.80 56.94 56.27 55.55 55.31 54.72 54.44 54.44 54.43 54.56 55.00 56.06 57.39 56.68 55.57 44.11 57.17 57.38 58.36 60.45 59.74 58.05 57.15 56.55 53.79 51.81 51.24 53.33 49.23 51.21 50.85 50.59 52.21 51.49 50.42 52.52 51.20 51.27 51.38 53.18 53.51 54.11 54.24 54.39
57.35 57.05 56.61 56.28 55.90 55.28 54.42 54.33 54.51 54.13 53.97 54.93 55.87 56.79 55.01 50.10 50.50 58.02 56.54 58.27 59.74 58.75 56.81 54.94 53.15 52.42 49.90 49.79 50.26 48.85 49.14 50.85 51.74 51.87 51.62 51.91 50.25 50.37 50.43 52.27 53.44 53.34 53.39 53.56 55.06
56.16 55.61 54.95 54.90 55.37 55.32 54.44 54.36 54.38 53.64 53.74 54.59 55.69 55.79 53.33 45.86 54.94 57.01 56.53 56.75 57.87 57.34 55.54 54.74 53.06 53.80 50.75 49.73 49.17 51.93 51.16 51.17 51.77 50.96 50.71 49.00 49.31 48.97 50.20 52.47 52.19 52.95 52.68 54.64 54.96
55.32 54.82 53.99 53.65 54.76 54.55 53.87 54.13 54.57 53.91 53.95 54.37 54.95 55.46 50.27 48.74 55.33 56.80 55.85 54.98 55.93 56.06 54.41 55.23 55.49 52.46 51.50 49.63 52.23 51.02 47.47 49.02 49.70 50.04 48.73 49.81 46.74 47.02 51.71 52.77 51.08 51.76 52.54 54.07 53.65
54.63 54.44 53.60 54.05 53.73 53.28 53.40 53.77 54.32 54.31 54.21 54.40 55.45 54.36 47.68 54.40 56.90 54.98 56.24 54.58 56.17 55.77 55.15 55.66 55.67 52.84 51.61 52.58 49.49 47.09 48.15 44.56 48.77 48.86 49.18 47.62 43.65 49.73 51.90 51.33 50.33 51.33 52.17 53.49 52.17
54.40 54.53 53.97 53.77 52.82 52.80 53.11 54.04 54.40 54.70 54.55 55.31 53.60 52.63 46.70 53.57 50.79 53.41 54.91 52.40 54.00 54.58 56.06 56.09 54.99 51.54 51.18 47.18 45.38 47.08 42.96 44.61 45.55 48.90 47.25 46.67 44.42 48.79 50.78 49.90 49.69 51.20 52.76 52.18 51.25
54.14 54.30 54.18 53.05 52.88 52.62 53.11 53.77 54.23 53.85 54.42 55.06 53.50 47.04 49.80 46.56 51.33 53.59 55.50 53.46 51.77 51.41 51.38 51.80 51.04 48.15 47.86 45.99 40.58 42.95 43.37 44.31 43.65 46.98 46.72 45.66 45.63 48.26 49.67 50.04 49.97 51.92 52.20 51.19 49.87
54.47 54.14 53.65 52.82 52.85 52.62 52.47 53.09 48.44 49.10 50.42 46.56 48.34 46.87 47.63 51.54 54.06 53.56 54.97 52.10 52.44 49.59 45.81 48.83 45.50 43.59 45.92 47.52 47.10 45.36 43.79 42.67 45.24 47.08 45.12 45.33 45.80 47.33 49.45 49.90 50.60 51.33 51.27 50.02 49.11
53.96 53.81 53.03 53.11 52.72 52.79 52.23 48.93 48.89 51.61 44.38 50.29 49.02 48.87 50.69 52.37 48.07 51.96 55.69 49.93 48.41 44.25 47.09 46.00 42.87 47.22 48.11 47.21 46.02 45.12 42.79 42.79 45.63 46.72 45.11 45.09 44.60 47.55 49.20 49.77 50.00 49.72 49.23 48.99 49.63
53.48 53.07 52.95 52.52 52.61 51.82 49.62 49.18 54.14 53.85 43.30 44.49 47.41 47.23 47.45 49.31 46.16 49.09 52.94 50.76 47.05 44.98 45.35 44.31 45.50 47.88 46.27 45.56 43.72 43.88 42.41 42.97 42.70 45.09 46.47 44.55 42.91 45.80 48.64 49.35 48.90 48.81 49.10 48.63 47.99
52.93 52.35 52.20 51.84 48.04 50.23 47.99 52.07 53.86 54.43 37.03 40.42 42.50 46.67 47.85 48.41 44.18 49.00 53.71 50.63 47.87 44.28 45.02 45.24 47.75 44.79 44.39 43.65 44.82 41.04 45.62 43.91 42.18 40.82 37.83 45.13 37.03 43.47 47.28 46.28 47.23 48.19 48.16 48.05 48.03
52.57 51.97 51.60 51.03 49.94 45.98 49.07 52.52 54.14 50.63 25.01 43.56 43.65 51.11 49.07 44.46 45.43 45.55 51.69 50.63 44.50 44.61 44.77 42.74 44.15 43.59 42.86 43.53 45.46 42.57 44.66 43.00 42.56 41.10 41.05 41.24 38.82 42.58 46.64 44.94 46.64 48.37 48.29 47.39 46.94
51.95 51.74 51.34 49.64 51.39 50.98 53.27 52.58 50.89 35.21 24.69 40.12 44.72 42.48 43.57 44.53 44.03 47.49 45.76 50.25 49.24 45.21 46.05 45.03 47.91 46.84 45.89 46.26 46.13 45.76 42.96 42.52 43.14 41.47 34.34 39.73 39.41 40.01 43.86 45.26 47.07 48.43 48.26 47.44 45.03
51.72 51.45 50.30 49.96 45.96 54.08 54.54 48.96 33.20 26.31 41.26 39.09 40.55 43.34 42.88 41.38 41.95 44.10 41.43 41.72 40.08 36.04 38.36 42.15 43.26 45.95 46.72 43.21 45.29 44.21 41.15 34.74 33.63 34.31 33.56 41.25 38.38 40.98 45.82 46.59 47.03 47.60 47.54 47.44 45.77
51.37 50.90 49.81 49.65 51.83 54.16 51.71 39.72 24.27 33.74 37.73 41.87 42.40 43.23 40.33 42.76 42.37 42.71 41.19 38.59 42.47 41.63 39.45 36.59 34.92 42.60 45.70 43.69 41.77 41.83 41.48 35.27 28.32 31.24 35.01 40.77 35.09 41.18 47.40 48.21 48.26 48.01 48.56 46.90 43.69
50.92 49.19 48.27 50.40 52.24 52.74 43.70 29.06 29.40 35.43 40.62 38.46 41.13 39.43 39.79 42.69 42.65 41.90 41.12 39.76 41.81 43.08 38.03 37.41 38.18 45.70 45.55 45.56 44.52 41.60 38.19 43.24 36.84 37.63 33.56 37.04 40.99 44.88 46.29 45.48 45.99 46.03 46.57 44.50 42.63
47.22 45.37 45.58 51.55 52.85 46.99 37.08 31.64 35.12 39.94 40.71 39.42 34.76 39.90 36.76 40.05 38.97 40.87 40.30 43.52 42.38 44.22 46.03 41.75 36.21 42.81 43.88 45.97 45.58 43.31 44.90 35.76 37.38 27.67 27.01 34.33 36.87 39.47 40.85 42.20 44.16 44.72 44.65 42.61 42.21
45.76 36.79 43.85 51.27 50.31 40.37 31.02 33.59 37.30 42.01 41.14 38.31 36.12 36.91 37.96 38.96 40.39 39.61 40.19 42.83 44.82 44.02 45.50 43.54 39.59 38.74 42.68 40.44 39.30 40.28 39.06 40.25 39.87 37.07 29.97 29.53 35.71 45.04 44.28 45.13 43.89 45.34 45.95 42.29 41.34
40.43 31.55 46.37 48.05 35.09 36.90 34.06 37.46 39.34 39.05 41.94 40.71 40.48 39.21 36.90 38.73 39.28 39.64 39.21 41.94 45.77 45.64 40.50 43.80 40.33 34.66 38.48 43.85 44.93 43.17 41.00 40.30 34.92 32.21 36.53 35.63 36.13 46.69 46.78 47.09 47.25 46.27 46.57 44.00 42.95
33.03 35.80 46.26 44.62 29.84 32.99 36.98 37.15 38.30 37.98 39.05 38.93 37.84 40.22 40.78 37.92 34.45 38.45 39.43 44.43 44.84 44.47 41.51 43.46 38.48 32.31 33.85 38.72 43.30 40.55 41.66 42.03 41.42 40.22 34.54 31.11 35.15 46.47 46.14 45.55 47.47 47.27 47.27 43.98 42.77
33.03 31.38 36.24 38.32 39.15 35.00 33.70 34.55 33.78 40.23 38.88 39.98 39.14 40.86 38.80 37.39 40.16 36.25 37.50 41.81 43.99 44.44 43.09 43.98 39.15 35.03 30.63 34.84 38.74 36.02 39.12 40.92 39.89 34.39 35.20 35.87 37.87 42.04 43.44 44.27 46.15 46.78 46.81 43.75 42.20
33.21 32.85 36.84 29.43 32.77 36.21 37.70 36.81 34.95 34.36 38.72 39.35 36.99 37.95 37.16 33.89 35.30 34.78 37.29 38.78 41.49 42.48 41.61 40.24 34.24 36.49 38.06 39.61 37.38 36.67 36.81 38.52 37.53 38.09 33.87 37.28 36.90 42.04 43.76 44.10 45.41 47.25 45.52 42.41 40.95
32.85 34.25 36.64 36.42 37.00 35.36 36.32 35.38 34.89 36.36 36.25 35.06 34.28 36.60 37.09 33.67 35.42 33.39 36.77 36.53 36.14 40.14 39.44 40.67 33.16 35.43 33.26 37.34 37.72 35.19 37.26 38.20 37.70 38.86 38.33 38.75 38.51 45.23 45.90 46.40 45.90 46.56 44.23 41.72 41.06
35.35 39.93 39.27 36.88 35.27 34.69 35.86 36.30 36.50 37.97 38.25 39.15 38.07 36.17 35.11 37.00 39.63 40.69 41.17 40.61 39.83 38.02 37.34 36.85 35.13 33.04 29.20 35.15 34.42 29.76 35.45 36.86 37.75 39.36 38.82 35.08 40.30 44.52 43.70 43.85 45.52 46.67 44.87 42.34 40.86
MSLP
1018.97 1019.05 1019.21 1019.52 1019.54 1019.68 1019.68 1019.64 1019.63 1019.57 1019.17 1018.98 1018.82 1018.25 1017.85 1017.21 1016.42 1014.61 1013.38 1013.52 1013.40 1013.44 1013.35 1011.72 1010.68 1009.66 1009.18 1008.26 1008.20 1007.49 1005.84 1003.60 1003.47 1004.64 1005.19 1006.72 1006.59 1006.88 1007.33 1007.13 1007.40 1007.63 1007.89 1008.96 1009.36
1018.78 1019.10 1019.14 1019.38 1019.59 1019.55 1019.53 1019.63 1019.60 1019.56 1019.22 1018.91 1018.80 1018.14 1017.88 1017.13 1015.86 1013.82 1013.54 1013.38 1013.66 1013.47 1012.51 1010.92 1009.78 1009.32 1008.37 1007.89 1007.65 1007.02 1005.34 1004.62 1005.67 1006.17 1006.13 1007.13 1007.39 1007.30 1007.51 1007.15 1007.50 1007.78 1008.22 1009.40 1009.58
1018.56 1018.82 1019.11 1019.27 1019.56 1019.59 1019.45 1019.47 1019.53 1019.40 1019.32 1019.07 1018.69 1018.17 1017.71 1017.17 1014.59 1012.16 1013.56 1013.66 1013.71 1013.34 1011.69 1010.91 1010.26 1009.45 1008.08 1007.92 1007.34 1006.61 1006.11 1006.55 1007.06 1007.97 1007.63 1007.44 1007.71 1007.81 1007.73 1007.57 1007.70 1008.49 1009.18 1009.61 1009.75
1018.41 1018.78 1018.92 1019.18 1019.36 1019.59 1019.45 1019.38 1019.39 1019.43 1019.39 1019.06 1018.59 1018.22 1017.60 1016.55 1013.52 1012.48 1013.62 1013.64 1013.49 1012.75 1011.46 1010.52 1009.95 1009.21 1008.44 1007.87 1007.75 1007.72 1007.08 1007.60 1007.62 1008.80 1008.63 1008.13 1008.07 1008.09 1007.97 1008.01 1008.51 1009.25 1009.66 1009.71 1010.02
1018.18 1018.63 1018.74 1019.01 1019.37 1019.39 1019.38 1019.36 1019.41 1019.24 1019.17 1019.07 1018.70 1018.41 1017.18 1014.93 1012.58 1013.12 1013.58 1013.42 1012.87 1012.04 1010.97 1010.33 1009.83 1008.94 1008.46 1008.15 1008.32 1008.07 1007.49 1008.09 1008.38 1009.09 1009.16 1008.94 1008.71 1008.45 1008.18 1008.56 1009.36 1009.65 1009.81 1010.03 1010.91
1018.16 1018.54 1018.72 1018.77 1019.08 1019.27 1019.41 1019.29 1019.24 1019.20 1019.03 1018.77 1018.88 1018.42 1016.97 1014.11 1012.62 1012.74 1012.76 1012.62 1012.17 1011.73 1011.00 1010.72 1009.83 1009.44 1009.21 1008.94 1008.82 1008.46 1008.50 1008.30 1008.49 1008.71 1008.88 1009.09 1008.51 1008.70 1008.27 1009.13 1009.38 1009.55 1009.81 1010.68 1012.33
1018.32 1018.60 1018.63 1018.73 1019.06 1019.05 1019.18 1019.14 1019.18 1019.11 1018.86 1018.80 1018.67 1017.77 1015.79 1013.24 1012.42 1012.64 1013.07 1012.27 1011.91 1011.82 1010.99 1010.91 1010.68 1010.28 1009.41 1009.17 1009.39 1009.32 1008.86 1007.91 1007.89 1008.17 1008.68 1009.35 1008.11 1007.91 1008.39 1009.32 1009.27 1009.41 1010.03 1011.53 1013.58
1018.44 1018.66 1018.42 1018.71 1018.87 1019.03 1019.10 1019.10 1018.93 1019.13 1018.66 1018.53 1018.68 1017.13 1014.39 1012.32 1012.50 1012.78 1012.50 1012.44 1012.42 1012.16 1011.86 1011.40 1011.25 1010.57 1010.05 1009.75 1009.82 1009.23 1008.32 1006.94 1006.13 1008.03 1008.73 1009.25 1006.88 1007.11 1008.56 1009.08 1009.10 1009.54 1010.42 1012.22 1014.18
1018.31 1018.43 1018.47 1018.37 1018.78 1018.91 1019.04 1018.94 1018.61 1018.98 1018.41 1018.41 1018.09 1016.35 1013.25 1013.28 1012.75 1012.07 1012.22 1011.89 1012.17 1012.14 1011.95 1011.74 1011.43 1010.33 1010.15 1009.73 1008.74 1008.13 1006.53 1006.02 1006.56 1007.51 1007.84 1008.52 1007.05 1007.01 1008.09 1008.96 1009.50 1010.19 1010.87 1012.76 1014.23
1017.88 1017.97 1018.52 1018.55 1018.73 1018.61 1018.85 1018.70 1018.38 1018.66 1018.03 1017.23 1016.66 1016.20 1012.81 1011.52 1011.76 1011.75 1012.05 1011.82 1011.74 1011.97 1011.93 1011.51 1010.75 1009.79 1009.26 1008.42 1006.81 1006.17 1006.27 1005.92 1006.12 1006.81 1007.94 1007.76 1007.42 1007.32 1007.59 1008.74 1010.10 1010.81 1011.89 1013.25 1014.57
1017.18 1017.67 1017.89 1018.50 1018.79 1018.56 1018.58 1018.10 1017.71 1016.72 1016.22 1014.04 1012.85 1012.33 1011.65 1011.59 1012.15 1011.63 1011.88 1011.37 1011.33 1011.33 1010.65 1010.62 1009.69 1008.06 1007.37 1007.39 1006.96 1006.82 1006.71 1006.19 1005.96 1006.29 1007.42 1007.77 1007.20 1007.03 1007.45 1008.79 1010.25 1011.39 1012.70 1013.88 1015.03
1016.78 1016.89 1017.59 1018.05 1018.54 1018.63 1018.36 1016.46 1015.42 1016.00 1014.44 1013.09 1012.75 1012.09 1011.67 1012.08 1010.92 1010.74 1011.42 1010.58 1010.27 1009.82 1009.75 1009.83 1008.42 1007.34 1006.95 1007.54 1007.44 1007.51 1007.11 1006.68 1006.61 1006.88 1008.02 1007.56 1006.86 1006.69 1007.28 1009.18 1010.93 1012.07 1013.53 1014.35 1015.10
1017.02 1016.72 1016.84 1017.52 1018.39 1018.54 1017.14 1016.27 1015.99 1016.09 1014.30 1011.61 1010.65 1010.84 1010.81 1011.60 1010.39 1009.44 1010.73 1009.86 1009.10 1008.75 1008.38 1007.99 1006.83 1007.13 1007.33 1007.92 1007.94 1007.49 1007.17 1007.02 1007.11 1007.22 1007.48 1007.13 1006.56 1005.83 1007.72 1009.88 1011.56 1013.12 1014.10 1015.06 1015.39
1016.66 1016.75 1017.03 1017.65 1018.20 1016.85 1016.32 1016.53 1016.59 1017.08 1014.39 1010.12 1009.78 1009.62 1009.91 1010.44 1009.42 1008.86 1009.52 1009.14 1008.55 1007.87 1007.67 1007.57 1007.34 1007.54 1007.48 1007.68 1007.77 1007.24 1007.15 1008.17 1008.27 1008.17 1006.93 1006.86 1005.54 1005.44 1006.97 1009.31 1010.73 1012.09 1013.64 1014.84 1015.77
1016.08 1016.37 1016.88 1016.72 1015.82 1016.24 1015.63 1015.96 1016.80 1017.16 1013.88 1008.47 1009.57 1010.15 1009.37 1009.19 1007.74 1007.70 1008.10 1008.89 1008.04 1007.77 1007.83 1006.80 1007.13 1007.24 1007.24 1007.07 1007.57 1007.96 1008.66 1008.88 1008.76 1008.21 1007.39 1006.54 1005.96 1004.61 1004.99 1007.39 1009.16 1010.93 1012.85 1014.73 1016.26
1015.72 1015.90 1016.72 1016.78 1016.37 1016.03 1016.61 1016.09 1016.96 1016.51 1011.98 1008.51 1009.14 1009.63 1009.30 1008.80 1008.00 1008.20 1008.22 1008.74 1008.53 1008.12 1007.69 1007.27 1007.35 1007.58 1007.26 1007.61 1008.05 1008.85 1009.53 1009.34 1009.13 1008.53 1006.92 1006.12 1005.63 1003.89 1003.67 1006.20 1007.66 1010.16 1012.52 1014.42 1016.55
1015.32 1015.47 1016.30 1015.66 1015.18 1015.90 1016.74 1016.69 1016.49 1013.64 1008.91 1007.24 1007.67 1008.32 1008.23 1007.97 1007.88 1008.17 1007.91 1007.95 1007.66 1007.81 1007.09 1007.93 1007.61 1007.75 1007.70 1008.10 1008.81 1009.11 1009.08 1008.33 1007.68 1007.15 1005.97 1005.30 1005.36 1004.36 1005.17 1006.76 1007.85 1010.09 1012.42 1014.39 1016.51
1014.85 1015.07 1015.48 1015.40 1015.18 1015.68 1016.28 1016.01 1013.73 1010.09 1008.09 1006.72 1006.56 1007.21 1007.08 1007.12 1007.27 1007.49 1007.17 1007.10 1007.39 1006.79 1006.07 1006.51 1006.56 1007.26 1007.58 1007.04 1007.35 1008.17 1008.31 1007.59 1006.59 1005.89 1005.04 1005.69 1005.12 1004.94 1005.79 1007.68 1009.25 1010.59 1012.45 1014.83 1016.97
1014.32 1014.59 1014.54 1014.80 1015.18 1015.74 1015.72 1014.18 1010.66 1007.83 1006.37 1006.80 1006.62 1006.27 1006.27 1005.81 1006.17 1006.84 1006.63 1006.20 1006.32 1006.47 1005.99 1005.38 1005.22 1005.61 1006.77 1007.19 1007.17 1007.06 1007.85 1007.93 1007.74 1007.31 1007.00 1005.91 1004.82 1006.21 1007.18 1008.39 1009.89 1011.15 1012.78 1015.04 1017.07
1013.25 1013.78 1013.31 1013.88 1014.90 1015.48 1014.64 1012.08 1009.57 1007.80 1006.16 1006.15 1005.71 1005.74 1004.85 1005.34 1005.77 1005.77 1005.87 1005.40 1005.64 1006.13 1006.19 1005.47 1005.54 1005.98 1007.01 1007.14 1007.11 1006.75 1007.80 1008.40 1008.54 1007.61 1006.66 1005.35 1004.75 1004.63 1006.93 1008.43 1009.77 1010.93 1012.73 1015.11 1016.91
1012.68 1013.13 1013.12 1013.24 1014.47 1014.69 1012.27 1011.05 1009.37 1007.72 1007.07 1006.76 1006.16 1005.63 1004.98 1004.73 1004.98 1005.12 1004.80 1005.40 1005.58 1005.83 1006.51 1006.05 1005.91 1006.27 1007.09 1006.73 1006.16 1007.18 1007.69 1007.89 1008.10 1007.87 1007.12 1005.74 1004.70 1005.48 1006.70 1007.76 1009.14 1010.46 1012.13 1014.76 1016.45
1012.62 1012.64 1012.44 1013.10 1013.29 1012.99 1011.81 1009.43 1009.56 1008.56 1008.02 1007.80 1007.44 1006.06 1005.54 1005.40 1004.80 1004.79 1004.77 1005.20 1006.30 1006.30 1006.39 1006.46 1006.39 1005.99 1005.95 1006.35 1006.57 1006.29 1006.67 1007.68 1007.89 1007.81 1007.71 1006.76 1005.02 1005.16 1006.20 1006.97 1008.16 1009.67 1011.18 1013.85 1015.87
1012.95 1011.81 1011.65 1012.05 1011.48 1011.38 1010.20 1010.00 1009.39 1008.96 1008.27 1008.04 1007.80 1007.31 1006.93 1006.26 1006.21 1005.63 1005.89 1006.89 1007.15 1007.05 1007.21 1007.02 1007.30 1006.93 1006.49 1006.42 1006.44 1006.48 1006.28 1007.05 1007.47 1007.52 1007.03 1006.92 1005.48 1005.66 1006.14 1006.58 1007.33 1008.42 1010.39 1013.45 1014.88
1013.92 1012.56 1010.95 1011.03 1010.74 1010.07 1009.80 1009.17 1009.10 1009.05 1008.81 1008.66 1008.15 1007.62 1007.79 1007.44 1007.02 1006.54 1006.82 1007.80 1008.06 1007.88 1008.64 1008.44 1008.15 1007.57 1006.97 1006.64 1007.37 1007.40 1006.75 1006.78 1006.75 1007.15 1006.88 1006.33 1005.66 1005.18 1006.10 1006.70 1007.08 1008.20 1010.18 1012.73 1014.32
1012.25 1011.15 1009.75 1009.32 1010.10 1009.38 1008.48 1007.78 1007.75 1008.07 1008.87 1009.61 1009.36 1008.42 1008.09 1008.01 1007.74 1007.59 1007.95 1008.78 1009.25 1009.24 1009.54 1010.18 1009.49 1008.67 1008.12 1007.34 1007.85 1008.15 1008.17 1007.62 1006.89 1006.90 1007.18 1006.19 1005.74 1005.46 1005.19 1005.61 1006.32 1007.87 1010.39 1012.64 1013.93
1011.22 1010.68 1009.75 1008.12 1007.79 1008.05 1007.45 1006.89 1006.73 1006.88 1007.55 1008.49 1009.17 1009.34 1009.29 1009.19 1008.79 1008.69 1009.26 1009.74 1009.61 1009.86 1009.73 1010.33 1010.71 1010.32 1009.17 1008.57 1007.43 1006.85 1006.78 1005.99 1005.89 1005.71 1005.59 1005.54 1004.87 1004.94 1004.62 1004.66 1005.12 1007.04 1009.88 1012.10 1013.67
1010.87 1009.44 1008.88 1007.09 1007.21 1007.08 1006.23 1005.62 1005.61 1006.24 1006.73 1007.39 1008.38 1008.93 1009.07 1009.54 1009.69 1009.69 1009.67 1010.56 1010.51 1010.11 1010.11 1010.28 1010.24 1010.18 1008.92 1008.62 1007.77 1006.76 1004.95 1005.50 1004.86 1004.37 1004.47 1003.85 1003.63 1003.27 1003.20 1003.86 1005.04 1006.28 1009.09 1011.59 1013.68
Wind_Speed
9 8 6 5 3 4 6 7 7 9 10 11 13 13 14 15 22 19 14 5 7 10 9 12 9 8 9 7 8 8 10 11 4 4 10 5 6 7 2 6 0 1 6 10 10
8 8 6 6 5 4 4 6 7 9 10 11 12 13 15 14 19 19 5 5 5 7 10 9 9 6 10 7 5 9 10 8 8 5 6 5 4 5 5 3 5 2 3 7 6
10 8 7 6 5 3 3 4 6 9 11 12 13 13 14 18 15 4 7 3 7 11 10 7 5 10 10 4 7 5 12 9 6 4 4 5 6 1 7 7 2 6 8 6 7
8 7 6 5 4 3 3 4 6 8 11 12 12 13 14 11 9 8 3 3 9 11 7 6 8 9 8 10 4 8 7 4 1 4 6 7 8 10 9 8 5 3 3 6 7
8 7 6 5 5 4 3 4 6 7 10 11 12 12 11 10 16 12 4 7 10 6 8 7 8 6 10 4 4 12 10 3 6 7 10 8 11 12 10 3 3 1 4 5 10
8 7 6 5 5 4 5 5 6 8 8 8 10 11 12 16 3 3 6 6 12 9 8 8 6 3 7 7 9 5 7 8 8 10 11 11 12 4 7 4 4 4 3 13 10
6 7 5 4 5 4 4 5 7 8 8 8 9 9 11 18 1 4 5 10 4 10 9 5 6 8 1 7 5 8 11 13 14 9 5 8 15 11 7 6 5 4 2 13 9
6 7 5 5 3 3 5 6 7 9 9 9 7 10 10 1 8 7 10 8 6 6 9 1 7 11 7 3 7 10 11 12 10 9 7 7 10 17 10 9 9 6 3 8 7
8 7 6 6 4 3 5 7 8 11 8 5 8 8 11 4 9 11 13 13 9 7 5 5 8 9 8 12 12 13 12 13 11 10 3 8 8 2 7 6 8 7 2 6 5
12 10 8 5 6 4 5 6 2 5 8 8 8 7 10 5 3 4 9 13 10 11 8 12 9 10 12 13 13 9 14 8 10 13 9 11 15 14 8 8 4 8 4 5 5
14 12 12 8 6 5 7 6 7 9 15 12 6 13 2 2 5 9 9 15 11 16 14 15 12 14 19 18 17 9 11 13 12 6 5 14 18 12 10 2 7 4 1 3 4
16 14 12 11 8 7 6 7 7 8 11 19 22 21 11 2 8 11 14 15 16 17 17 10 17 18 12 5 9 12 14 15 13 6 5 16 18 14 5 6 5 4 6 3 2
15 14 13 12 8 7 10 10 5 7 10 16 20 22 17 15 12 17 18 17 16 18 18 17 1 10 12 11 14 15 16 13 13 6 11 20 19 25 12 7 8 7 2 2 3
16 15 15 11 5 9 12 12 4 6 7 10 11 10 14 12 13 24 22 15 15 16 17 16 19 10 12 16 14 16 14 10 10 10 10 6 9 2 17 14 14 11 7 3 2
19 18 16 18 6 12 2 10 7 3 5 7 12 5 9 18 5 18 20 22 20 16 14 12 13 14 18 18 13 12 2 7 10 11 13 17 13 13 13 17 15 13 9 5 5
20 19 18 12 4 6 5 10 8 5 13 9 9 11 14 20 13 5 20 20 11 20 15 19 1 12 14 9 10 1 7 9 10 11 13 19 19 11 11 12 13 11 10 8 6
22 21 18 11 11 9 10 9 6 10 8 10 9 13 18 13 19 14 20 23 15 18 20 15 16 11 7 11 10 14 11 7 11 11 11 3 7 12 9 9 4 10 9 8 7
23 21 17 12 5 13 11 10 10 17 27 5 6 12 17 14 18 18 18 21 26 19 10 17 17 21 17 16 11 19 16 9 10 10 10 8 7 3 10 11 8 4 8 10 7
22 11 14 12 11 10 11 13 15 16 21 21 7 14 17 18 9 16 19 20 21 20 15 15 15 21 11 17 17 12 17 14 17 16 13 12 16 11 9 12 10 10 10 11 9
11 11 16 20 14 8 13 17 18 25 15 12 23 15 17 17 14 16 16 16 18 24 18 7 9 12 9 12 13 12 8 7 8 7 17 15 17 9 16 14 12 13 14 11 10
9 5 6 18 14 9 12 20 26 19 6 10 16 19 15 15 18 19 16 4 16 16 19 10 8 11 12 14 15 12 11 10 10 14 12 15 11 6 11 13 15 15 15 15 13
2 8 11 13 11 11 12 33 25 26 10 7 7 7 12 6 15 17 13 6 3 6 14 16 7 12 16 12 17 18 22 19 12 17 12 14 17 3 7 7 11 14 16 17 15
2 2 12 12 12 17 25 29 24 26 17 15 9 7 5 9 8 10 9 7 3 6 1 7 6 9 14 13 8 15 21 19 20 16 22 15 10 5 2 4 8 10 17 17 16
2 5 4 9 5 20 25 20 26 24 18 13 16 15 9 9 8 6 7 5 4 7 8 4 9 13 15 15 2 6 19 19 22 16 17 20 23 21 8 9 10 8 16 17 16
6 3 6 11 13 18 26 21 25 26 20 13 8 14 16 14 14 12 8 6 5 5 1 4 10 16 21 23 12 11 13 18 18 17 13 17 19 21 17 12 19 13 16 15 17
4 5 5 17 23 23 21 25 26 25 22 22 18 15 17 13 14 11 14 15 15 14 15 11 9 17 22 23 22 21 22 26 22 24 24 23 25 23 22 20 15 18 16 17 17
3 5 6 9 22 18 20 26 27 23 21 24 24 20 18 17 16 15 14 9 12 12 14 16 13 16 21 21 20 18 29 22 25 26 24 24 23 24 19 16 13 13 18 17 16
Wind_Direction
237 219 206 229 234 280 301 312 323 323 326 323 320 321 312 310 306 285 269 15 356 330 313 264 251 244 237 245 250 257 258 249 119 210 94 127 248 126 10 255 113 314 46 21 350
202 207 207 216 234 253 293 318 326 323 325 324 319 320 310 313 302 282 74 59 316 295 253 232 236 235 228 230 215 246 242 14 29 35 107 168 234 359 299 231 283 234 69 15 338
193 199 211 216 225 247 287 312 319 323 324 323 320 317 308 309 289 89 79 85 302 289 262 267 276 256 255 235 193 212 263 42 116 14 320 297 261 190 265 261 173 347 312 333 347
186 191 199 216 224 247 288 314 311 317 321 318 319 316 310 293 299 91 140 271 280 281 246 217 228 234 252 228 191 256 239 281 13 185 282 267 300 282 281 277 339 291 351 301 357
168 184 194 213 246 250 280 289 292 303 315 314 318 311 307 258 261 115 173 213 256 253 244 227 246 238 246 264 250 246 260 206 258 254 264 280 268 268 263 62 180 138 258 356 23
170 183 194 205 233 241 273 283 282 295 302 302 312 306 264 269 33 159 217 228 244 236 226 243 260 299 289 253 253 34 298 259 249 257 257 271 260 233 197 166 226 243 291 62 36
179 192 191 210 229 240 256 271 279 284 296 298 299 279 268 254 96 199 224 233 247 261 243 240 274 230 121 226 232 264 258 246 232 238 234 255 247 212 149 201 254 259 352 76 45
210 206 179 198 209 239 256 267 270 277 286 297 271 274 266 21 314 239 232 209 211 239 257 239 246 251 236 64 221 246 235 257 165 177 154 242 286 147 169 225 283 312 4 95 70
199 197 193 179 199 225 256 268 268 269 262 249 245 232 263 107 226 233 221 223 193 198 210 203 235 227 176 224 220 210 256 208 177 194 235 233 289 120 178 258 282 295 87 95 90
194 188 195 191 194 183 244 276 141 220 210 221 255 265 231 240 136 206 216 219 190 196 195 208 214 218 214 210 225 270 206 224 257 153 210 247 262 266 255 252 305 287 101 112 95
192 187 175 183 197 184 187 212 214 207 221 222 213 245 185 188 196 215 193 186 207 193 205 205 215 215 218 218 260 294 280 275 276 264 231 256 262 262 251 133 223 223 128 105 85
192 180 174 172 182 194 253 234 327 359 287 225 250 250 252 329 214 200 182 192 187 200 209 181 229 236 250 284 247 238 251 255 261 265 299 265 266 258 182 208 268 238 176 150 124
195 173 165 163 168 196 210 224 318 313 266 262 231 232 222 212 239 184 198 221 199 212 199 224 332 203 244 219 234 235 249 258 271 265 249 263 266 248 141 172 177 201 168 141 38
191 175 160 141 172 215 209 225 211 325 279 247 211 243 204 204 235 232 189 213 214 228 223 237 244 204 224 231 221 253 235 240 262 253 263 106 280 168 178 189 196 189 201 170 130
181 171 160 173 335 198 146 177 139 242 276 112 135 94 179 200 107 200 192 224 238 212 233 224 223 203 226 228 232 261 139 226 244 251 266 261 263 266 235 179 197 193 179 168 95
180 171 168 192 229 238 136 153 154 185 235 188 145 202 184 206 224 118 192 226 232 246 215 250 262 209 231 216 196 224 207 215 232 250 255 249 241 272 217 189 189 167 163 157 152
184 173 179 180 203 185 170 163 164 220 208 191 189 186 207 187 201 185 187 196 196 202 219 218 208 215 213 173 199 194 205 231 217 206 246 138 270 257 127 148 131 164 177 153 153
188 173 196 196 188 177 179 190 198 224 232 106 180 187 206 175 210 199 191 200 214 215 219 211 206 206 198 211 188 207 214 233 247 247 277 119 229 199 90 121 127 152 163 151 159
187 185 192 197 189 190 195 199 208 210 213 220 190 200 207 188 215 193 214 208 199 215 224 201 223 176 182 211 239 189 221 251 275 277 270 254 259 133 141 146 166 173 171 166 182
191 194 200 186 191 187 205 217 223 232 265 247 221 217 203 194 207 194 186 204 207 206 232 226 178 187 161 205 232 236 222 210 229 254 243 254 254 278 176 184 189 187 186 177 186
221 199 205 180 180 206 216 218 231 237 195 240 236 235 247 195 205 191 184 131 198 200 208 234 250 166 152 205 190 197 222 226 246 237 263 272 273 65 165 190 194 196 192 176 189
219 181 189 171 181 201 215 216 225 240 201 225 312 285 236 217 206 194 200 162 160 173 199 217 237 227 204 218 232 231 211 226 222 237 259 269 270 157 162 187 193 194 188 172 191
267 194 176 170 182 189 218 223 229 236 231 229 238 242 273 197 222 222 209 73 85 205 293 176 227 233 249 258 242 237 235 217 246 237 248 250 244 112 142 227 208 209 174 173 187
239 229 199 183 205 201 203 215 221 230 243 266 244 236 220 233 245 213 200 93 24 64 25 350 247 248 243 239 137 259 258 255 251 234 252 249 262 267 185 266 285 199 160 181 184
172 258 246 168 192 215 201 208 209 209 202 220 261 240 242 232 235 232 258 181 246 166 213 28 260 251 252 260 174 239 248 259 250 254 243 266 260 264 280 283 208 203 167 189 182
209 174 246 181 185 205 212 209 213 213 207 226 227 243 244 255 266 237 230 240 235 241 241 177 235 253 268 282 266 265 253 250 260 245 248 254 255 259 262 272 267 175 179 192 191
211 250 208 198 189 203 208 209 212 208 217 211 222 230 243 236 252 264 287 230 252 256 252 253 241 245 252 243 258 264 255 267 264 261 264 263 265 269 277 281 240 189 180 195 189